TimeEDT,TemperatureF,Dew PointF,Humidity,Sea Level PressureIn,VisibilityMPH,Wind Direction,Wind SpeedMPH,Gust SpeedMPH,PrecipitationIn,Events,Conditions,WindDirDegrees,DateUTC
12:15 AM,39.2,39.2,100,30.29,10.0,Calm,Calm,-,N/A,,Clear,0,2013-10-29 04:15:00
12:35 AM,39.2,39.2,100,30.29,10.0,Calm,Calm,-,N/A,,Clear,0,2013-10-29 04:35:00
12:55 AM,39.2,37.4,93,30.29,10.0,Calm,Calm,-,N/A,,Clear,0,2013-10-29 04:55:00
1:15 AM,39.2,39.2,100,30.29,9.0,Calm,Calm,-,N/A,,Clear,0,2013-10-29 05:15:00
1:35 AM,37.4,37.4,100,30.30,10.0,Calm,Calm,-,N/A,,Clear,0,2013-10-29 05:35:00
1:55 AM,39.2,37.4,93,30.30,10.0,Calm,Calm,-,N/A,,Clear,0,2013-10-29 05:55:00
2:15 AM,37.4,35.6,93,30.30,10.0,Calm,Calm,-,N/A,,Clear,0,2013-10-29 06:15:00
2:35 AM,37.4,35.6,93,30.31,10.0,Calm,Calm,-,N/A,,Clear,0,2013-10-29 06:35:00
2:55 AM,37.4,37.4,100,30.31,10.0,SSE,3.5,-,N/A,,Clear,150,2013-10-29 06:55:00
3:15 AM,37.4,37.4,100,30.31,5.0,Calm,Calm,-,N/A,,Clear,0,2013-10-29 07:15:00
3:35 AM,37.4,37.4,100,30.31,10.0,Calm,Calm,-,N/A,,Clear,0,2013-10-29 07:35:00
3:55 AM,35.6,35.6,100,30.31,8.0,Calm,Calm,-,N/A,,Clear,0,2013-10-29 07:55:00
4:15 AM,35.6,35.6,100,30.31,9.0,Calm,Calm,-,N/A,,Clear,0,2013-10-29 08:15:00
4:35 AM,35.6,35.6,100,30.32,10.0,Calm,Calm,-,N/A,,Clear,0,2013-10-29 08:35:00
4:55 AM,35.6,35.6,100,30.32,9.0,Calm,Calm,-,N/A,,Clear,0,2013-10-29 08:55:00
5:15 AM,35.6,35.6,100,30.33,7.0,Calm,Calm,-,N/A,,Clear,0,2013-10-29 09:15:00
5:35 AM,35.6,35.6,100,30.34,8.0,Calm,Calm,-,N/A,,Scattered Clouds,0,2013-10-29 09:35:00
5:55 AM,35.6,35.6,100,30.34,10.0,Calm,Calm,-,N/A,,Clear,0,2013-10-29 09:55:00
6:15 AM,35.6,35.6,100,30.35,7.0,Calm,Calm,-,N/A,,Clear,0,2013-10-29 10:15:00
6:30 AM,33.8,33.8,100,30.26,10.0,Calm,Calm,-,N/A,,Clear,0,2013-10-29 10:30:00
6:45 AM,35.6,35.6,100,30.36,10.0,Calm,Calm,-,N/A,,Clear,0,2013-10-29 10:45:00
7:45 AM,33.8,33.8,100,30.36,10.0,Calm,Calm,-,N/A,,Clear,0,2013-10-29 11:45:00
10:45 AM,51.8,42.8,71,30.40,10.0,NNE,3.5,-,N/A,,Clear,30,2013-10-29 14:45:00
11:45 AM,55.4,42.8,63,30.38,10.0,NNW,3.5,-,N/A,,Clear,330,2013-10-29 15:45:00
12:45 PM,60.8,39.2,45,30.37,10.0,Calm,Calm,-,N/A,,Clear,0,2013-10-29 16:45:00
1:50 PM,62.6,39.2,42,30.34,10.0,Calm,Calm,-,N/A,,Clear,0,2013-10-29 17:50:00
2:55 PM,64.4,39.2,40,30.32,10.0,Calm,Calm,-,N/A,,Clear,0,2013-10-29 18:55:00
3:45 PM,64.4,39.2,40,30.32,10.0,Calm,Calm,-,N/A,,Clear,0,2013-10-29 19:45:00
4:45 PM,64.4,39.2,40,30.32,10.0,Calm,Calm,-,N/A,,Clear,0,2013-10-29 20:45:00
6:45 PM,55.4,44.6,67,30.32,10.0,Calm,Calm,-,N/A,,Clear,0,2013-10-29 22:45:00
7:55 PM,48.2,44.6,87,30.33,10.0,Calm,Calm,-,N/A,,Clear,0,2013-10-29 23:55:00
8:15 PM,48.2,44.6,87,30.33,10.0,Calm,Calm,-,N/A,,Clear,0,2013-10-30 00:15:00
8:35 PM,48.2,44.6,87,30.33,10.0,Calm,Calm,-,N/A,,Clear,0,2013-10-30 00:35:00
8:55 PM,46.4,44.6,93,30.34,10.0,Calm,Calm,-,N/A,,Clear,0,2013-10-30 00:55:00
9:15 PM,46.4,44.6,93,30.35,10.0,Calm,Calm,-,N/A,,Clear,0,2013-10-30 01:15:00
9:35 PM,46.4,44.6,93,30.35,10.0,Calm,Calm,-,N/A,,Clear,0,2013-10-30 01:35:00
9:55 PM,46.4,44.6,93,30.35,10.0,Calm,Calm,-,N/A,,Clear,0,2013-10-30 01:55:00
10:15 PM,46.4,44.6,93,30.35,10.0,Calm,Calm,-,N/A,,Clear,0,2013-10-30 02:15:00
10:35 PM,46.4,46.4,100,30.34,10.0,Calm,Calm,-,N/A,,Partly Cloudy,0,2013-10-30 02:35:00
10:55 PM,46.4,46.4,100,30.34,10.0,Calm,Calm,-,N/A,,Mostly Cloudy,0,2013-10-30 02:55:00
11:15 PM,48.2,46.4,93,30.34,10.0,Calm,Calm,-,N/A,,Mostly Cloudy,0,2013-10-30 03:15:00
11:35 PM,48.2,46.4,93,30.34,10.0,Calm,Calm,-,N/A,,Overcast,0,2013-10-30 03:35:00
11:55 PM,48.2,46.4,93,30.34,10.0,Calm,Calm,-,N/A,,Overcast,0,2013-10-30 03:55:00